Location: Unspecified
(0.0000°N, 0.0000°E)
Time: 23:38:15
(UTC+00:00)

deb Delta 104 - Pass Details

Date: 07 March 2026
Orbit: 1430 x 1579 km, 102.3° (Epoch: 12 April)

Event Time Altitude Azimuth Distance (km) Brightness Sun altitude
Rises 18:49:39 0° 206° (SSW) 4,516 ? -9.6°
Reaches altitude 10° 18:56:30 10° 247° (WSW) 3,535 ? -11.3°
Maximum altitude 18:57:09 10° 252° (WSW) 3,527 ? -11.5°
Drops below altitude 10° 18:57:49 10° 256° (WSW) 3,537 ? -11.7°
Sets 19:04:45 0° 297° (WNW) 4,531 ? -13.4°
